START_TIME,STEP,MOV.,M15,t_acc.,M20,t_acc.
1979-07-17 03:00:43.930 ,1,0,0.,24.0,0.,24.0
1979-07-17 03:01:07.930 ,2,1,0.,24.0,0.,24.0
1979-07-17 03:01:31.930 ,2,0,0.,24.0,0.,24.0
1979-07-17 03:01:55.930 ,3,1,0.,24.0,0.,24.0
1979-07-17 03:02:19.930 ,3,0,0.,24.0,0.,24.0
1979-07-17 03:02:43.930 ,4,1,0.,24.0,0.,24.0
1979-07-17 03:03:07.930 ,4,0,0.,24.0,0.,24.0
1979-07-17 03:03:31.920 ,5,1,0.,24.0,0.,24.0
1979-07-17 03:03:55.920 ,5,0,0.,24.0,0.,24.0
1979-07-17 03:04:19.920 ,6,1,0.,24.0,0.,24.0
1979-07-17 03:04:43.920 ,6,0,0.,24.0,0.,24.0
1979-07-17 03:05:07.920 ,7,1,0.,24.0,0.,24.0
1979-07-17 03:05:31.920 ,7,0,0.,24.0,0.,24.0
1979-07-17 03:05:55.920 ,7,1,0.,24.0,0.,24.0
1979-07-17 03:06:19.920 ,7,0,0.,24.0,0.,24.0
1979-07-17 03:06:43.920 ,6,1,0.,24.0,0.,24.0
1979-07-17 03:07:07.920 ,6,0,0.,24.0,0.,24.0
1979-07-17 03:07:31.920 ,5,1,0.,24.0,0.,24.0
1979-07-17 03:07:55.920 ,5,0,0.,24.0,0.,24.0
1979-07-17 03:08:19.920 ,4,1,0.,24.0,0.,24.0
1979-07-17 03:08:43.920 ,4,0,0.,24.0,0.,24.0
1979-07-17 03:09:07.920 ,3,1,0.,24.0,0.,24.0
1979-07-17 03:09:31.920 ,3,0,0.,24.0,0.,24.0
1979-07-17 03:09:55.920 ,2,1,0.,24.0,0.,24.0
1979-07-17 03:10:19.920 ,2,0,0.,24.0,0.,24.0
1979-07-17 03:10:43.920 ,1,1,0.,24.0,0.,24.0
1979-07-17 03:11:07.920 ,1,0,0.,24.0,0.,24.0
1979-07-17 03:11:31.920 ,0,1,0.,24.0,0.,24.0
1979-07-17 03:11:55.920 ,0,0,0.,24.0,0.,24.0
1979-07-17 03:12:19.920 ,0,1,0.,24.0,0.,24.0
1979-07-17 03:12:43.920 ,0,0,0.,24.0,0.,24.0
1979-07-17 03:13:07.920 ,1,1,0.,24.0,0.,24.0
1979-07-17 03:13:31.920 ,1,0,0.,24.0,0.,24.0
1979-07-17 03:13:55.920 ,2,1,1.,24.0,0.,24.0
1979-07-17 03:14:19.920 ,2,0,0.,24.0,0.,24.0
1979-07-17 03:14:43.920 ,3,1,0.,24.0,0.,24.0
1979-07-17 03:15:07.920 ,3,0,0.,24.0,0.,24.0
1979-07-17 03:15:31.920 ,4,1,0.,24.0,0.,24.0
1979-07-17 03:15:55.920 ,4,0,0.,24.0,0.,24.0
1979-07-17 03:16:19.920 ,5,1,0.,24.0,0.,24.0
1979-07-17 03:16:43.920 ,5,0,0.,24.0,0.,24.0
1979-07-17 03:17:07.920 ,6,1,0.,24.0,0.,24.0
1979-07-17 03:17:31.920 ,6,0,0.,24.0,0.,24.0
1979-07-17 03:17:55.920 ,7,1,0.,24.0,0.,24.0
1979-07-17 03:18:19.920 ,7,0,0.,24.0,0.,24.0
1979-07-17 03:18:43.920 ,7,1,0.,24.0,0.,24.0
1979-07-17 03:19:07.920 ,7,0,0.,24.0,0.,24.0
1979-07-17 03:19:31.920 ,6,1,0.,24.0,0.,24.0
1979-07-17 03:19:55.920 ,6,0,0.,24.0,0.,24.0
1979-07-17 03:20:19.920 ,5,1,0.,24.0,0.,24.0
1979-07-17 03:20:43.920 ,5,0,0.,24.0,0.,24.0
1979-07-17 03:21:07.920 ,4,1,0.,24.0,0.,24.0
1979-07-17 03:21:31.920 ,0,0,0.,24.0,0.,24.0
1979-07-17 03:22:04.320 ,0,0,0.,24.0,0.,24.0
1979-07-17 03:22:19.920 ,0,0,0.,24.0,0.,24.0
1979-07-17 03:22:43.920 ,2,1,0.,24.0,0.,24.0
1979-07-17 03:23:07.920 ,2,0,0.,24.0,0.,24.0
1979-07-17 03:23:31.920 ,1,1,0.,24.0,0.,24.0
1979-07-17 03:23:55.920 ,1,0,0.,24.0,0.,24.0
1979-07-17 03:24:19.920 ,0,1,0.,24.0,0.,24.0
1979-07-17 03:24:43.920 ,0,0,0.,24.0,0.,24.0
1979-07-17 03:25:07.920 ,0,1,0.,24.0,0.,24.0
1979-07-17 03:25:31.920 ,0,0,0.,24.0,0.,24.0
1979-07-17 03:25:55.920 ,1,1,0.,24.0,0.,24.0
1979-07-17 03:26:19.920 ,1,0,0.,24.0,0.,24.0
1979-07-17 03:26:43.920 ,2,1,0.,24.0,0.,24.0
1979-07-17 03:27:07.920 ,2,0,0.,24.0,0.,24.0
1979-07-17 03:27:31.920 ,3,1,0.,24.0,0.,24.0
1979-07-17 03:27:55.920 ,3,0,0.,24.0,0.,24.0
1979-07-17 03:28:19.920 ,4,1,0.,24.0,0.,24.0
1979-07-17 03:28:43.920 ,4,0,0.,24.0,0.,24.0
1979-07-17 03:29:07.920 ,5,1,0.,24.0,0.,24.0
1979-07-17 03:29:31.920 ,5,0,0.,24.0,0.,24.0
1979-07-17 03:29:55.920 ,6,1,0.,24.0,0.,24.0
1979-07-17 03:30:19.920 ,6,0,0.,24.0,0.,24.0
1979-07-17 03:30:43.920 ,7,0,0.,24.0,0.,24.0
1979-07-17 03:31:07.920 ,7,0,0.,24.0,0.,24.0
1979-07-17 03:31:31.920 ,3,1,0.,24.0,0.,24.0
1979-07-17 03:31:55.920 ,0,1,0.,24.0,0.,24.0
1979-07-17 03:32:19.920 ,4,1,0.,24.0,0.,24.0
1979-07-17 03:32:43.920 ,7,1,0.,24.0,0.,24.0
1979-07-17 03:33:07.920 ,3,1,0.,24.0,0.,24.0
1979-07-17 03:33:31.920 ,0,1,0.,24.0,0.,24.0
1979-07-17 03:33:55.920 ,4,1,0.,24.0,0.,24.0
1979-07-17 03:34:19.920 ,7,1,0.,24.0,0.,24.0
1979-07-17 03:34:43.920 ,3,1,0.,24.0,0.,24.0
1979-07-17 03:35:07.920 ,0,1,0.,24.0,0.,24.0
1979-07-17 03:35:31.920 ,4,1,0.,24.0,0.,24.0
1979-07-17 03:35:55.920 ,7,1,0.,24.0,0.,24.0
1979-07-17 03:36:19.920 ,3,1,0.,24.0,0.,24.0
1979-07-17 03:36:43.920 ,0,1,0.,24.0,0.,24.0
1979-07-17 03:37:07.920 ,4,1,0.,24.0,0.,24.0
1979-07-17 03:37:31.920 ,7,1,0.,24.0,0.,24.0
1979-07-17 03:37:55.920 ,3,1,0.,24.0,0.,24.0
1979-07-17 03:38:19.920 ,0,1,0.,24.0,0.,24.0
1979-07-17 03:38:43.920 ,4,1,0.,24.0,0.,24.0
1979-07-17 03:39:07.920 ,7,1,0.,24.0,0.,24.0
1979-07-17 03:39:31.920 ,3,1,0.,24.0,0.,24.0
1979-07-17 03:39:55.920 ,0,1,0.,24.0,0.,24.0
1979-07-17 03:40:19.920 ,4,1,0.,24.0,0.,24.0
1979-07-17 03:40:43.920 ,7,1,0.,24.0,0.,24.0
1979-07-17 03:41:07.920 ,3,1,0.,24.0,0.,24.0
1979-07-17 03:41:31.920 ,0,1,0.,24.0,0.,24.0
1979-07-17 03:41:55.920 ,0,0,0.,24.0,0.,24.0
1979-07-17 03:42:19.920 ,0,0,0.,24.0,0.,24.0
1979-07-17 03:42:43.920 ,5,1,0.,24.0,0.,24.0
1979-07-17 03:43:07.920 ,5,0,0.,24.0,0.,24.0
1979-07-17 03:43:31.920 ,4,1,0.,24.0,0.,24.0
1979-07-17 03:43:55.920 ,4,0,0.,24.0,0.,24.0
1979-07-17 03:44:19.920 ,3,1,0.,24.0,0.,24.0
1979-07-17 03:44:43.920 ,3,0,0.,24.0,0.,24.0
1979-07-17 03:45:07.920 ,2,1,0.,24.0,0.,24.0
1979-07-17 03:45:31.920 ,2,0,0.,24.0,0.,24.0
1979-07-17 03:45:55.920 ,1,1,0.,24.0,0.,24.0
1979-07-17 03:46:19.920 ,1,0,0.,24.0,0.,24.0
1979-07-17 03:46:43.920 ,0,1,0.,24.0,0.,24.0
1979-07-17 03:47:07.920 ,0,0,0.,24.0,0.,24.0
1979-07-17 03:47:31.920 ,0,1,0.,24.0,0.,24.0
1979-07-17 03:47:55.920 ,0,0,0.,24.0,0.,24.0
1979-07-17 03:48:19.920 ,1,1,0.,24.0,0.,24.0
1979-07-17 03:48:43.920 ,1,0,0.,24.0,0.,24.0
1979-07-17 03:49:07.920 ,2,1,0.,24.0,0.,24.0
1979-07-17 03:49:31.920 ,2,0,0.,24.0,0.,24.0
1979-07-17 03:49:55.920 ,3,1,0.,24.0,0.,24.0
1979-07-17 03:50:19.920 ,3,0,0.,24.0,0.,24.0
1979-07-17 03:50:43.920 ,4,1,0.,24.0,0.,24.0
1979-07-17 03:51:07.920 ,4,0,0.,24.0,0.,24.0
1979-07-17 03:51:31.920 ,5,1,0.,24.0,0.,24.0
1979-07-17 03:51:55.920 ,5,0,0.,24.0,0.,24.0
1979-07-17 03:52:19.920 ,6,1,0.,24.0,0.,24.0
1979-07-17 03:52:43.920 ,6,0,0.,24.0,0.,24.0
1979-07-17 03:53:07.920 ,7,1,0.,24.0,0.,24.0
1979-07-17 03:53:31.920 ,7,0,0.,24.0,0.,24.0
1979-07-17 03:53:55.920 ,7,1,0.,24.0,0.,24.0
1979-07-17 03:54:19.920 ,7,0,0.,24.0,0.,24.0
1979-07-17 03:54:43.920 ,6,1,0.,24.0,0.,24.0
1979-07-17 03:55:07.920 ,6,0,0.,24.0,0.,24.0
1979-07-17 03:55:31.920 ,5,1,0.,24.0,0.,24.0
1979-07-17 03:55:55.920 ,5,0,0.,24.0,0.,24.0
1979-07-17 03:56:19.920 ,4,1,0.,24.0,0.,24.0
1979-07-17 03:56:43.920 ,4,0,0.,24.0,0.,24.0
1979-07-17 03:57:07.920 ,3,1,0.,24.0,0.,24.0
1979-07-17 03:57:31.920 ,3,0,0.,24.0,0.,24.0
1979-07-17 03:57:55.920 ,2,1,0.,24.0,0.,24.0
1979-07-17 03:58:19.920 ,2,0,0.,24.0,0.,24.0
1979-07-17 03:58:43.920 ,1,1,0.,24.0,0.,24.0
1979-07-17 03:59:07.920 ,1,0,0.,24.0,0.,24.0
1979-07-17 03:59:31.920 ,0,1,0.,24.0,0.,24.0
1979-07-17 03:59:55.920 ,0,0,0.,24.0,0.,24.0
1979-07-17 04:00:19.920 ,0,1,0.,24.0,0.,24.0
1979-07-17 04:00:43.920 ,0,0,0.,24.0,0.,24.0
1979-07-17 04:01:07.920 ,1,1,0.,24.0,0.,24.0
1979-07-17 04:01:31.920 ,1,0,0.,24.0,0.,24.0
1979-07-17 04:01:55.920 ,2,1,0.,24.0,0.,24.0
1979-07-17 04:02:19.920 ,2,0,0.,24.0,0.,24.0
1979-07-17 04:02:43.920 ,3,1,0.,24.0,0.,24.0
1979-07-17 04:03:07.920 ,3,0,0.,24.0,0.,24.0
1979-07-17 04:03:31.920 ,4,1,0.,24.0,0.,24.0
1979-07-17 04:03:55.920 ,4,0,0.,24.0,0.,24.0
1979-07-17 04:04:19.920 ,5,1,0.,24.0,0.,24.0
1979-07-17 04:04:43.920 ,5,0,0.,24.0,0.,24.0
1979-07-17 04:05:07.920 ,6,1,0.,24.0,0.,24.0
1979-07-17 04:05:31.920 ,6,0,0.,24.0,0.,24.0
1979-07-17 04:05:55.920 ,7,1,0.,24.0,0.,24.0
1979-07-17 04:06:19.920 ,7,0,0.,24.0,0.,24.0
1979-07-17 04:06:43.920 ,7,1,0.,24.0,0.,24.0
1979-07-17 04:07:07.920 ,7,0,0.,24.0,0.,24.0
1979-07-17 04:07:31.920 ,6,1,0.,24.0,0.,24.0
1979-07-17 04:07:55.920 ,6,0,0.,24.0,0.,24.0
1979-07-17 04:08:19.920 ,5,1,0.,24.0,0.,24.0
1979-07-17 04:08:43.920 ,5,0,0.,24.0,0.,24.0
1979-07-17 04:09:07.920 ,4,1,0.,24.0,0.,24.0
1979-07-17 04:09:31.920 ,4,0,0.,24.0,0.,24.0
1979-07-17 04:09:55.920 ,3,1,0.,24.0,0.,24.0
1979-07-17 04:10:19.920 ,3,0,0.,24.0,0.,24.0
1979-07-17 04:10:43.920 ,2,1,0.,24.0,0.,24.0
1979-07-17 04:11:07.920 ,2,0,0.,24.0,0.,24.0
1979-07-17 04:11:31.920 ,1,1,0.,24.0,0.,24.0
1979-07-17 04:11:55.920 ,1,0,0.,24.0,0.,24.0
1979-07-17 04:12:19.920 ,0,1,0.,24.0,0.,24.0
1979-07-17 04:12:43.920 ,0,0,0.,24.0,0.,24.0
1979-07-17 04:13:07.920 ,0,1,0.,24.0,0.,24.0
1979-07-17 04:13:31.920 ,0,0,0.,24.0,0.,24.0
1979-07-17 04:13:55.920 ,1,1,0.,24.0,0.,24.0
1979-07-17 04:14:19.920 ,1,0,0.,24.0,0.,24.0
1979-07-17 04:14:43.920 ,2,1,0.,24.0,0.,24.0
1979-07-17 04:15:07.920 ,2,0,0.,24.0,0.,24.0
1979-07-17 04:15:31.920 ,3,1,0.,24.0,0.,24.0
1979-07-17 04:15:55.920 ,3,0,0.,24.0,0.,24.0
1979-07-17 04:16:19.920 ,4,1,0.,24.0,0.,24.0
1979-07-17 04:16:43.920 ,4,0,0.,24.0,0.,24.0
1979-07-17 04:17:07.920 ,5,1,0.,24.0,0.,24.0
1979-07-17 04:17:31.920 ,5,0,0.,24.0,0.,24.0
1979-07-17 04:17:55.920 ,6,1,0.,24.0,0.,24.0
1979-07-17 04:18:19.920 ,6,0,0.,24.0,0.,24.0
1979-07-17 04:18:43.920 ,7,0,0.,24.0,0.,24.0
1979-07-17 04:19:07.920 ,7,0,0.,24.0,0.,24.0
1979-07-17 04:19:31.920 ,3,1,0.,24.0,0.,24.0
1979-07-17 04:19:55.920 ,0,1,0.,24.0,0.,24.0
1979-07-17 04:20:19.920 ,4,1,0.,24.0,0.,24.0
1979-07-17 04:20:43.920 ,7,1,0.,24.0,0.,24.0
1979-07-17 04:21:07.920 ,3,1,0.,24.0,0.,24.0
1979-07-17 04:21:31.920 ,0,1,0.,24.0,0.,24.0
1979-07-17 04:21:55.920 ,4,1,0.,24.0,0.,24.0
1979-07-17 04:22:19.920 ,7,1,0.,24.0,0.,24.0
1979-07-17 04:22:43.920 ,3,1,0.,24.0,0.,24.0
1979-07-17 04:23:07.920 ,0,1,0.,24.0,0.,24.0
1979-07-17 04:23:31.920 ,4,1,0.,24.0,0.,24.0
1979-07-17 04:23:55.920 ,7,1,0.,24.0,0.,24.0
1979-07-17 04:24:19.920 ,3,1,0.,24.0,0.,24.0
1979-07-17 04:24:43.920 ,0,1,0.,24.0,0.,24.0
1979-07-17 04:25:07.920 ,4,1,0.,24.0,0.,24.0
1979-07-17 04:25:31.920 ,7,1,0.,24.0,0.,24.0
1979-07-17 04:25:55.920 ,3,1,0.,24.0,0.,24.0
1979-07-17 04:26:19.920 ,0,1,0.,24.0,0.,24.0
1979-07-17 04:26:43.920 ,4,1,0.,24.0,0.,24.0
1979-07-17 04:27:07.920 ,7,1,0.,24.0,0.,24.0
1979-07-17 04:27:31.920 ,3,1,0.,24.0,0.,24.0
1979-07-17 04:27:55.920 ,0,1,0.,24.0,0.,24.0
1979-07-17 04:28:19.920 ,4,1,0.,24.0,0.,24.0
1979-07-17 04:28:43.920 ,7,1,0.,24.0,0.,24.0
1979-07-17 04:29:07.920 ,3,1,0.,24.0,0.,24.0
1979-07-17 04:29:31.920 ,0,1,0.,24.0,0.,24.0
1979-07-17 04:29:55.920 ,0,0,0.,24.0,0.,24.0
1979-07-17 04:30:19.920 ,0,0,0.,24.0,0.,24.0
1979-07-17 04:30:43.920 ,5,1,0.,24.0,0.,24.0
1979-07-17 04:31:07.920 ,5,0,0.,24.0,0.,24.0
1979-07-17 04:31:31.920 ,4,1,0.,24.0,0.,24.0
1979-07-17 04:31:55.920 ,4,0,0.,24.0,0.,24.0
1979-07-17 04:32:19.920 ,3,1,0.,24.0,0.,24.0
1979-07-17 04:32:43.920 ,3,0,0.,24.0,0.,24.0
1979-07-17 04:33:07.920 ,2,1,0.,24.0,0.,24.0
1979-07-17 04:33:31.920 ,2,0,0.,24.0,0.,24.0
1979-07-17 04:33:55.920 ,1,1,0.,24.0,0.,24.0
1979-07-17 04:34:19.920 ,1,0,0.,24.0,0.,24.0
1979-07-17 04:34:43.920 ,0,1,0.,24.0,0.,24.0
1979-07-17 04:35:07.920 ,0,0,0.,24.0,0.,24.0
1979-07-17 04:35:31.920 ,0,1,0.,24.0,0.,24.0
1979-07-17 04:35:55.920 ,0,0,0.,24.0,0.,24.0
1979-07-17 04:36:19.920 ,1,1,0.,24.0,0.,24.0
1979-07-17 04:36:43.920 ,1,0,0.,24.0,0.,24.0
1979-07-17 04:37:07.920 ,2,1,0.,24.0,0.,24.0
1979-07-17 04:37:31.920 ,2,0,0.,24.0,0.,24.0
1979-07-17 04:37:55.920 ,3,1,0.,24.0,0.,24.0
1979-07-17 04:38:19.920 ,3,0,0.,24.0,0.,24.0
1979-07-17 04:38:43.920 ,4,1,0.,24.0,0.,24.0
1979-07-17 04:39:07.920 ,4,0,0.,24.0,0.,24.0
1979-07-17 04:39:31.920 ,5,1,0.,24.0,0.,24.0
1979-07-17 04:39:55.920 ,5,0,0.,24.0,0.,24.0
1979-07-17 04:40:19.920 ,6,1,0.,24.0,0.,24.0
1979-07-17 04:40:43.920 ,6,0,0.,24.0,0.,24.0
1979-07-17 04:41:07.920 ,7,1,0.,24.0,0.,24.0
1979-07-17 04:41:31.920 ,7,0,0.,24.0,0.,24.0
1979-07-17 04:41:55.920 ,7,1,0.,24.0,0.,24.0
1979-07-17 04:42:19.920 ,7,0,0.,24.0,0.,24.0
1979-07-17 04:42:43.920 ,6,1,0.,24.0,0.,24.0
1979-07-17 04:43:07.920 ,6,0,0.,24.0,0.,24.0
1979-07-17 04:43:31.920 ,5,1,0.,24.0,0.,24.0
1979-07-17 04:43:55.920 ,5,0,0.,24.0,0.,24.0
1979-07-17 04:44:19.920 ,4,1,0.,24.0,0.,24.0
1979-07-17 04:44:43.920 ,4,0,0.,24.0,0.,24.0
1979-07-17 04:45:07.920 ,3,1,0.,24.0,0.,24.0
1979-07-17 04:45:31.920 ,3,0,0.,24.0,0.,24.0
1979-07-17 04:45:55.920 ,2,1,0.,24.0,0.,24.0
1979-07-17 04:46:19.920 ,2,0,0.,24.0,0.,24.0
1979-07-17 04:46:43.920 ,1,1,0.,24.0,0.,24.0
1979-07-17 04:47:07.920 ,1,0,0.,24.0,0.,24.0
1979-07-17 04:47:31.920 ,0,1,0.,24.0,0.,24.0
1979-07-17 04:47:55.920 ,0,0,0.,24.0,0.,24.0
1979-07-17 04:48:19.920 ,0,1,0.,24.0,0.,24.0
1979-07-17 04:48:43.920 ,0,0,0.,24.0,0.,24.0
1979-07-17 04:49:07.920 ,1,1,0.,24.0,0.,24.0
1979-07-17 04:49:31.920 ,1,0,0.,24.0,0.,24.0
1979-07-17 04:49:55.920 ,2,1,0.,24.0,0.,24.0
1979-07-17 04:50:19.920 ,2,0,0.,24.0,0.,24.0
1979-07-17 04:50:43.920 ,3,1,0.,24.0,0.,24.0
1979-07-17 04:51:07.920 ,3,0,0.,24.0,0.,24.0
1979-07-17 04:51:31.920 ,4,1,0.,24.0,0.,24.0
1979-07-17 04:51:55.920 ,4,0,0.,24.0,0.,24.0
1979-07-17 04:52:19.920 ,5,1,0.,24.0,0.,24.0
1979-07-17 04:52:43.920 ,5,0,0.,24.0,0.,24.0
1979-07-17 04:53:07.920 ,6,1,0.,24.0,0.,24.0
1979-07-17 04:53:31.920 ,6,0,0.,24.0,0.,24.0
1979-07-17 04:53:55.920 ,7,1,0.,24.0,0.,24.0
1979-07-17 04:54:19.920 ,7,0,0.,24.0,0.,24.0
1979-07-17 04:54:43.920 ,7,1,0.,24.0,0.,24.0
1979-07-17 04:55:07.920 ,7,0,0.,24.0,0.,24.0
1979-07-17 04:55:31.920 ,6,1,0.,24.0,0.,24.0
1979-07-17 04:55:55.920 ,6,0,0.,24.0,0.,24.0
1979-07-17 04:56:19.920 ,5,1,0.,24.0,0.,24.0
1979-07-17 04:56:43.920 ,5,0,0.,24.0,0.,24.0
1979-07-17 04:57:07.920 ,4,1,0.,24.0,0.,24.0
1979-07-17 04:57:31.920 ,4,0,0.,24.0,0.,24.0
1979-07-17 04:57:55.920 ,3,1,0.,24.0,0.,24.0
1979-07-17 04:58:19.920 ,3,0,0.,24.0,0.,24.0
1979-07-17 04:58:43.920 ,2,1,0.,24.0,0.,24.0
1979-07-17 04:59:07.920 ,2,0,0.,24.0,0.,24.0
1979-07-17 04:59:31.920 ,1,1,0.,24.0,0.,24.0
1979-07-17 04:59:55.920 ,1,0,0.,24.0,0.,24.0
1979-07-17 05:00:19.920 ,0,1,0.,24.0,0.,24.0
1979-07-17 05:00:43.920 ,0,0,0.,24.0,0.,24.0
1979-07-17 05:01:07.920 ,0,1,0.,24.0,0.,24.0
1979-07-17 05:01:31.920 ,0,0,0.,24.0,0.,24.0
1979-07-17 05:01:55.920 ,1,1,0.,24.0,0.,24.0
1979-07-17 05:02:19.920 ,1,0,0.,24.0,0.,24.0
1979-07-17 05:02:43.920 ,2,1,0.,24.0,0.,24.0
1979-07-17 05:03:07.920 ,2,0,0.,24.0,0.,24.0
1979-07-17 05:03:31.920 ,3,1,0.,24.0,0.,24.0
1979-07-17 05:03:55.920 ,3,0,0.,24.0,0.,24.0
1979-07-17 05:04:19.920 ,4,1,0.,24.0,0.,24.0
1979-07-17 05:04:43.920 ,4,0,0.,24.0,0.,24.0
1979-07-17 05:05:07.920 ,5,1,0.,24.0,0.,24.0
1979-07-17 05:05:31.920 ,5,0,0.,24.0,0.,24.0
1979-07-17 05:05:55.920 ,6,1,0.,24.0,0.,24.0
1979-07-17 05:06:19.920 ,6,0,0.,24.0,0.,24.0
1979-07-17 05:06:43.920 ,7,0,0.,24.0,0.,24.0
1979-07-17 05:07:07.920 ,7,0,0.,24.0,0.,24.0
1979-07-17 05:07:31.920 ,3,1,0.,24.0,0.,24.0
1979-07-17 05:07:55.920 ,0,1,0.,24.0,0.,24.0
1979-07-17 05:08:19.920 ,4,1,0.,24.0,0.,24.0
1979-07-17 05:08:43.920 ,7,1,0.,24.0,0.,24.0
1979-07-17 05:09:07.920 ,3,1,0.,24.0,0.,24.0
1979-07-17 05:09:31.920 ,0,1,0.,24.0,0.,24.0
1979-07-17 05:09:55.920 ,4,1,0.,24.0,0.,24.0
1979-07-17 05:10:19.920 ,7,1,0.,24.0,0.,24.0
1979-07-17 05:10:43.920 ,3,1,0.,24.0,0.,24.0
1979-07-17 05:11:07.920 ,0,1,0.,24.0,0.,24.0
1979-07-17 05:11:31.920 ,4,1,0.,24.0,0.,24.0
1979-07-17 05:11:55.920 ,7,1,0.,24.0,0.,24.0
1979-07-17 05:12:19.920 ,3,1,0.,24.0,0.,24.0
1979-07-17 05:12:43.920 ,0,1,0.,24.0,0.,24.0
1979-07-17 05:13:07.920 ,4,1,0.,24.0,0.,24.0
1979-07-17 05:13:31.920 ,7,1,0.,24.0,0.,24.0
1979-07-17 05:13:55.920 ,3,1,0.,24.0,0.,24.0
1979-07-17 05:14:19.920 ,0,1,0.,24.0,0.,24.0
1979-07-17 05:14:43.920 ,4,1,0.,24.0,0.,24.0
1979-07-17 05:15:07.920 ,7,1,1.,24.0,0.,24.0
1979-07-17 05:15:31.920 ,3,1,0.,24.0,0.,24.0
1979-07-17 05:15:55.920 ,0,1,0.,24.0,0.,24.0
1979-07-17 05:16:19.920 ,4,1,0.,24.0,0.,24.0
1979-07-17 05:16:43.920 ,7,1,0.,24.0,0.,24.0
1979-07-17 05:17:07.920 ,3,1,0.,24.0,0.,24.0
1979-07-17 05:17:31.920 ,0,1,0.,24.0,0.,24.0
1979-07-17 05:17:55.920 ,0,0,0.,24.0,0.,24.0
1979-07-17 05:18:19.920 ,0,0,0.,24.0,0.,24.0
1979-07-17 05:18:43.920 ,5,1,0.,24.0,0.,24.0
1979-07-17 05:19:07.920 ,5,0,0.,24.0,0.,24.0
1979-07-17 05:19:31.920 ,4,1,0.,24.0,0.,24.0
1979-07-17 05:19:55.920 ,4,0,0.,24.0,0.,24.0
1979-07-17 05:20:19.920 ,3,1,0.,24.0,0.,24.0
1979-07-17 05:20:43.920 ,3,0,0.,24.0,0.,24.0
1979-07-17 05:21:07.920 ,2,1,0.,24.0,0.,24.0
1979-07-17 05:21:31.920 ,2,0,0.,24.0,0.,24.0
1979-07-17 05:21:55.920 ,1,1,0.,24.0,0.,24.0
1979-07-17 05:22:19.920 ,1,0,0.,24.0,0.,24.0
1979-07-17 05:22:43.920 ,0,1,0.,24.0,0.,24.0
1979-07-17 05:23:07.920 ,0,0,0.,24.0,0.,24.0
1979-07-17 05:23:31.920 ,0,1,0.,24.0,0.,24.0
1979-07-17 05:23:55.920 ,0,0,0.,24.0,0.,24.0
1979-07-17 05:24:19.920 ,1,1,0.,24.0,0.,24.0
1979-07-17 05:24:43.920 ,1,0,0.,24.0,0.,24.0
1979-07-17 05:25:07.920 ,2,1,0.,24.0,0.,24.0
1979-07-17 05:25:31.920 ,2,0,0.,24.0,0.,24.0
1979-07-17 05:25:55.920 ,3,1,0.,24.0,0.,24.0
1979-07-17 05:26:19.920 ,3,0,0.,24.0,0.,24.0
1979-07-17 05:26:43.920 ,4,1,0.,24.0,0.,24.0
1979-07-17 05:27:07.920 ,4,0,0.,24.0,0.,24.0
1979-07-17 05:27:31.920 ,5,1,0.,24.0,0.,24.0
1979-07-17 05:27:55.920 ,5,0,0.,24.0,0.,24.0
1979-07-17 05:28:19.920 ,6,1,0.,24.0,0.,24.0
1979-07-17 05:28:43.920 ,6,0,0.,24.0,0.,24.0
1979-07-17 05:29:07.920 ,7,1,0.,24.0,0.,24.0
1979-07-17 05:29:31.920 ,7,0,0.,24.0,0.,24.0
1979-07-17 05:29:55.920 ,7,1,0.,24.0,0.,24.0
1979-07-17 05:30:19.920 ,7,0,0.,24.0,0.,24.0
1979-07-17 05:30:43.920 ,6,1,0.,24.0,0.,24.0
1979-07-17 05:31:07.920 ,6,0,0.,24.0,0.,24.0
1979-07-17 05:31:31.920 ,5,1,0.,24.0,0.,24.0
1979-07-17 05:31:55.920 ,5,0,0.,24.0,0.,24.0
1979-07-17 05:32:19.920 ,4,1,0.,24.0,0.,24.0
1979-07-17 05:32:43.920 ,4,0,0.,24.0,0.,24.0
1979-07-17 05:33:07.920 ,3,1,0.,24.0,0.,24.0
1979-07-17 05:33:31.920 ,3,0,0.,24.0,0.,24.0
1979-07-17 05:33:55.920 ,2,1,0.,24.0,0.,24.0
1979-07-17 05:34:19.920 ,2,0,0.,24.0,0.,24.0
1979-07-17 05:34:43.920 ,1,1,0.,24.0,0.,24.0
1979-07-17 05:35:07.920 ,1,0,0.,24.0,0.,24.0
1979-07-17 05:35:31.920 ,0,1,0.,24.0,0.,24.0
1979-07-17 05:35:55.920 ,0,0,0.,24.0,0.,24.0
1979-07-17 05:36:19.920 ,0,1,0.,24.0,0.,24.0
1979-07-17 05:36:43.920 ,0,0,0.,24.0,0.,24.0
1979-07-17 05:37:07.920 ,1,1,0.,24.0,0.,24.0
1979-07-17 05:37:31.920 ,1,0,0.,24.0,0.,24.0
1979-07-17 05:37:55.920 ,2,1,0.,24.0,0.,24.0
1979-07-17 05:38:19.920 ,2,0,0.,24.0,0.,24.0
1979-07-17 05:38:43.920 ,3,1,0.,24.0,0.,24.0
1979-07-17 05:39:07.920 ,3,0,0.,24.0,0.,24.0
1979-07-17 05:39:31.920 ,4,1,0.,24.0,0.,24.0
1979-07-17 05:39:55.920 ,4,0,0.,24.0,0.,24.0
1979-07-17 05:40:19.920 ,5,1,0.,24.0,0.,24.0
1979-07-17 05:40:43.920 ,5,0,0.,24.0,0.,24.0
1979-07-17 05:41:07.920 ,6,1,0.,24.0,0.,24.0
1979-07-17 05:41:31.920 ,6,0,0.,24.0,0.,24.0
1979-07-17 05:41:55.920 ,7,1,0.,24.0,0.,24.0
1979-07-17 05:42:19.920 ,7,0,0.,24.0,0.,24.0
1979-07-17 05:42:43.920 ,7,1,0.,24.0,0.,24.0
1979-07-17 05:43:07.920 ,7,0,0.,24.0,0.,24.0
1979-07-17 05:43:31.920 ,6,1,0.,24.0,0.,24.0
1979-07-17 05:43:55.920 ,6,0,0.,24.0,0.,24.0
1979-07-17 05:44:19.920 ,5,1,0.,24.0,0.,24.0
1979-07-17 05:44:43.920 ,5,0,0.,24.0,0.,24.0
1979-07-17 05:45:07.920 ,4,1,0.,24.0,0.,24.0
1979-07-17 05:45:31.920 ,4,0,0.,24.0,0.,24.0
1979-07-17 05:45:55.920 ,3,1,0.,24.0,0.,24.0
1979-07-17 05:46:19.920 ,3,0,0.,24.0,0.,24.0
1979-07-17 05:46:43.920 ,2,1,0.,24.0,0.,24.0
1979-07-17 05:47:07.920 ,2,0,0.,24.0,0.,24.0
1979-07-17 05:47:31.920 ,1,1,0.,24.0,0.,24.0
1979-07-17 05:47:55.920 ,1,0,0.,24.0,0.,24.0
1979-07-17 05:48:19.920 ,0,1,0.,24.0,0.,24.0
1979-07-17 05:48:43.920 ,0,0,0.,24.0,0.,24.0
1979-07-17 05:49:07.920 ,0,1,0.,24.0,0.,24.0
1979-07-17 05:49:31.920 ,0,0,0.,24.0,0.,24.0
1979-07-17 05:49:55.920 ,1,1,0.,24.0,0.,24.0
1979-07-17 05:50:19.920 ,1,0,0.,24.0,0.,24.0
1979-07-17 05:50:43.920 ,2,1,0.,24.0,0.,24.0
1979-07-17 05:51:07.920 ,2,0,0.,24.0,0.,24.0
1979-07-17 05:51:31.920 ,3,1,0.,24.0,0.,24.0
1979-07-17 05:51:55.920 ,3,0,0.,24.0,0.,24.0
1979-07-17 05:52:19.920 ,4,1,0.,24.0,0.,24.0
1979-07-17 05:52:43.920 ,4,0,0.,24.0,0.,24.0
1979-07-17 05:53:07.920 ,5,1,0.,24.0,0.,24.0
1979-07-17 05:53:31.920 ,5,0,0.,24.0,0.,24.0
1979-07-17 05:53:55.920 ,6,1,0.,24.0,0.,24.0
1979-07-17 05:54:19.920 ,6,0,0.,24.0,0.,24.0
1979-07-17 05:54:43.920 ,7,0,0.,24.0,0.,24.0
1979-07-17 05:55:07.920 ,7,0,0.,24.0,0.,24.0
1979-07-17 05:55:31.920 ,3,1,0.,24.0,0.,24.0
1979-07-17 05:55:55.920 ,0,1,0.,24.0,0.,24.0
1979-07-17 05:56:19.920 ,4,1,0.,24.0,0.,24.0
1979-07-17 05:56:43.920 ,7,1,0.,24.0,0.,24.0
1979-07-17 05:57:07.920 ,3,1,0.,24.0,0.,24.0
1979-07-17 05:57:31.920 ,0,1,0.,24.0,0.,24.0
1979-07-17 05:57:55.920 ,4,1,0.,24.0,0.,24.0
1979-07-17 05:58:19.920 ,7,1,0.,24.0,0.,24.0
1979-07-17 05:58:43.910 ,3,1,0.,24.0,0.,24.0
1979-07-17 05:59:07.910 ,0,1,0.,24.0,0.,24.0
1979-07-17 05:59:31.910 ,4,1,0.,24.0,0.,24.0
1979-07-17 05:59:55.910 ,7,1,0.,24.0,0.,24.0
1979-07-17 06:00:19.910 ,3,1,0.,24.0,0.,24.0
